This demonstration page uses our WeatherBlox Daily Observations layout. Learn more.

Left ArrowRight Arrow

34.74481, -87.66753

Hourly Observations for June 10, 2017

Temp ( °F °C ) Dew Point ( °F °C ) Humidity (%) Winds ( mph kmh ) Pressure ( in mb ) Visibility ( mi km ) Precip ( " mm )
12:53 am 00:53 Clear 62 16.7 58 14.4 86 86 Calm 29.98 1015 10 16 0.00 0.00
1:53 am 01:53 Clear 61 16.1 58 14.4 90 90 Calm 29.98 1015 10 16 0.00 0.00
2:53 am 02:53 Partly Cloudy 61 16.1 58 14.4 90 90 Calm 29.98 1015 10 16 0.00 0.00
3:53 am 03:53 Partly Cloudy 61 16.1 58 14.4 90 90 Calm 29.98 1015 10 16 0.00 0.00
4:53 am 04:53 Mostly Clear 60 15.6 57 13.9 90 90 Calm 29.99 1016 10 16 0.00 0.00
5:53 am 05:53 Sunny 58 14.4 55 12.8 90 90 Calm 30.01 1016 7 11 0.00 0.00
6:53 am 06:53 Sunny 63 17.2 59 15 87 87 Calm 30.03 1017 10 16 0.00 0.00
7:53 am 07:53 Sunny 69 20.6 61 16.1 76 76 Calm 30.05 1018 10 16 0.00 0.00
8:53 am 08:53 Sunny 75 23.9 60 15.6 60 60 Calm 30.07 1018 10 16 0.00 0.00
9:53 am 09:53 Sunny 81 27.2 59 15 47 47 S 6 9 30.08 1019 10 16 0.00 0.00
10:53 am 10:53 Sunny 83 28.3 58 14.4 43 43 S 6 9 30.08 1019 10 16 0.00 0.00
11:53 am 11:53 Mostly Sunny 87 30.6 57 13.9 36 36 SSW 9 15 30.07 1018 10 16 0.00 0.00
12:53 pm 12:53 Sunny 89 31.7 56 13.3 33 33 WSW 15 24 30.05 1018 10 16 0.00 0.00
1:53 pm 13:53 Mostly Sunny 85 29.4 57 13.9 39 39 S 7 11 30.04 1017 10 16 0.00 0.00
2:53 pm 14:53 Mostly Sunny 90 32.2 57 13.9 33 33 SW 8 13 30.03 1017 10 16 0.00 0.00
3:53 pm 15:53 Mostly Sunny 89 31.7 57 13.9 34 34 SW 9 15 30.02 1017 10 16 0.00 0.00
4:53 pm 16:53 Partly Cloudy 86 30 58 14.4 39 39 SSW 7 11 30.01 1016 10 16 0.00 0.00
5:53 pm 17:53 Mostly Sunny 86 30 60 15.6 42 42 SSE 6 9 30.01 1016 10 16 0.00 0.00
6:53 pm 18:53 Mostly Cloudy 85 29.4 59 15 42 42 SSW 7 11 30.01 1016 10 16 0.00 0.00
7:53 pm 19:53 Mostly Sunny 80 26.7 61 16.1 52 52 SSE 6 9 30.01 1016 10 16 0.00 0.00
8:53 pm 20:53 Clear 76 24.4 62 16.7 62 62 SSE 5 7 30.02 1017 10 16 0.00 0.00
9:53 pm 21:53 Clear 72 22.2 63 17.2 73 73 SE 5 7 30.05 1018 10 16 0.00 0.00
10:53 pm 22:53 Mostly Clear 71 21.7 63 17.2 76 76 ESE 5 7 30.07 1018 10 16 0.00 0.00
11:53 pm 23:53 Clear 68 20 62 16.7 81 81 Calm 30.08 1019 10 16 0.00 0.00

Powered by AerisWeather